Location: Unspecified
(50.7693°N, 0.0000°E)
Time: 11:31:53
(UTC+00:00)

Vanguard 1 - Pass Details

Date: 22 June 2019
Orbit: 653 x 3830 km, 34.3° (Epoch: 22 July)

Event Time Altitude Azimuth Distance (km) Brightness Sun altitude
Exits shadow 01:13:56 15° 185° (S) 5,779 13.3 -14.1°
Maximum altitude 01:22:38 22° 154° (SSE) 4,597 13.1 -13.7°
Drops below altitude 10° 01:31:44 10° 111° (ESE) 4,573 13.5 -13.2°
Sets 01:35:46 0° 97° (E) 5,098 13.9 -13.0°
